#timestamp,LO_Frequency,Hit,StdDev 
1587405615.5,286046971.1,N
1587405635.3,286046964.7,Y
1587405655.1,286046983.4,P
1587405675.9,286046979.9,P
1587405695.7,286046988.0,P
1587405715.6,286046992.9,N
1587405735.4,286046995.5,N
1587405755.2,286047001.7,N
1587405775.1,286047006.1,N
1587405776.0,286047006.1,N
1587405795.8,286047011.9,N
1587405815.7,286047009.8,N
1587405835.5,286047011.4,N
1587405855.3,286047006.2,N
1587405875.2,286047001.8,N
1587405895.9,286047000.4,N
1587405915.7,286047001.5,N
1587405935.6,286047002.7,N
1587405955.4,286046994.7,N
1587405975.2,286046994.7,N
1587405995.1,286047000.8,N
1587405996.0,286047000.8,N
1587406015.8,286047008.5,N
1587406035.7,286047011.7,N
1587406055.5,286047012.7,N
1587406075.3,286047007.9,N
1587406095.2,286046997.7,N
1587406115.0,286046986.3,N
1587406115.9,286046986.3,N
1587406135.7,286046983.9,N
1587406155.6,286046991.2,N
1587406175.4,286046987.3,N
1587406195.3,286046997.7,N
1587406215.1,286047005.5,N
1587406216.0,286047005.5,N
1587406235.8,286047010.4,N
1587406255.7,286047007.7,N
1587406275.5,286047010.2,N
1587406295.3,286047006.4,N
1587406315.2,286047006.5,N
1587406335.0,286047007.1,N
1587406335.9,286047007.1,N
1587406355.8,286047002.3,N
1587406375.6,286047006.3,N
1587406395.4,286047009.9,N
1587406415.3,286047006.7,N
1587406435.1,286047010.4,N
1587406455.8,286047005.6,N
1587406475.7,286047004.2,N
1587406495.5,286047004.3,N
1587406515.4,286047006.0,N
1587406535.2,286047001.2,N
1587406555.0,286046997.4,N
1587406555.9,286046997.4,N
1587406575.8,286047003.0,N
1587406595.6,286047006.6,N
1587406615.4,286047005.0,N
1587406635.3,286047000.5,N
1587406655.1,286046991.7,N
1587406675.9,286046996.3,N
1587406695.7,286046999.7,N
1587406715.5,286047009.0,N
1587406735.4,286047006.7,N
1587406755.2,286047009.1,N
1587406775.0,286047011.9,N
1587406775.9,286047003.4,N
1587406795.8,286047006.2,N
1587406815.6,286047007.6,N
1587406835.5,286047010.7,N
1587406855.3,286047004.5,N
1587406875.1,286047008.4,N
1587406895.9,286047008.5,N
1587406915.7,286047014.6,Y
1587406935.6,286047010.3,P
1587406955.4,286047012.9,P
1587406975.2,286047013.9,P
1587406995.1,286047012.1,Y
1587406996.0,286047012.1,P
1587407015.8,286047005.3,P
1587407035.7,286047011.7,P
1587407055.5,286047013.0,Y
1587407075.4,286047006.1,P
1587407095.2,286047012.5,P
1587407115.0,286047009.6,P
1587407115.9,286047009.6,Y
1587407135.8,286047001.1,P
1587407155.6,286046997.8,N
1587407175.5,286046987.2,N
1587407195.3,286046985.3,N
1587407215.1,286046976.9,N
1587407235.9,286046970.5,N
1587407255.7,286046970.4,N
1587407275.5,286046972.9,N
1587407295.4,286046970.9,N
1587407315.2,286046965.0,N
1587407335.0,286046976.9,N
1587407336.0,286046976.9,N
1587407355.8,286046985.0,N
1587407375.6,286046993.3,N
1587407395.5,286046999.2,N
1587407415.3,286046994.2,N
1587407435.1,286047002.0,N
1587407455.9,286047003.2,N
1587407475.7,286047008.7,N
1587407495.5,286047013.4,N
1587407515.4,286047015.5,N
1587407535.2,286047020.4,N
1587407555.1,286047023.0,N
1587407556.0,286047023.0,N
1587407575.8,286047024.7,N
1587407595.6,286047023.9,N
1587407615.5,286047022.5,N
1587407635.3,286047025.9,N
1587407655.1,286047036.3,N
1587407675.9,286047037.9,N
1587407695.7,286047037.0,N
1587407715.6,286047033.8,N
1587407735.4,286047034.7,N
1587407755.2,286047031.9,N
1587407775.1,286047037.1,N
1587407776.0,286047037.1,N
1587407795.8,286047034.4,N
1587407815.7,286047029.5,N
1587407835.5,286047018.6,N
1587407855.3,286047012.6,N
1587407875.2,286047017.7,N
1587407895.9,286047020.2,N
1587407915.7,286047026.7,N
1587407935.6,286047031.1,N
1587407955.4,286047036.4,Y
1587407975.3,286047015.1,P
1587407995.1,286047009.3,N
1587407996.0,286047009.3,N
1587408015.8,286047002.2,N
1587408035.7,286047003.6,N
1587408055.5,286047004.5,N
1587408075.3,286047016.1,N
1587408095.2,286047021.2,Y
1587408115.0,286047014.1,P
1587408115.9,286047014.1,P
1587408135.8,286047022.0,P
1587408155.6,286047029.2,Y
1587408175.4,286047013.9,P
1587408195.3,286047012.8,P
1587408215.1,286047010.9,P
1587408235.8,286047012.7,Y
1587408255.7,286046999.3,P
1587408275.5,286047001.7,N
1587408295.4,286047007.1,N
1587408315.2,286047006.8,N
1587408335.0,286047002.3,N
1587408335.9,286047002.3,N
1587408355.8,286046987.1,N
1587408375.6,286046985.5,N
1587408395.4,286046990.2,N
1587408415.3,286046993.6,N
1587408435.1,286046989.8,N
1587408455.9,286046991.0,N
1587408475.7,286046994.2,N
1587408495.5,286047002.7,N
1587408515.4,286047007.9,N
1587408535.2,286047011.6,N
1587408555.0,286047015.2,N
1587408556.0,286047015.2,N
1587408575.8,286047008.3,N
1587408595.6,286047002.8,N
1587408615.5,286047004.4,N
1587408635.3,286046997.7,N
1587408655.1,286047001.1,N
1587408675.9,286047005.8,N
1587408695.7,286047013.6,N
1587408715.6,286047009.7,N
1587408735.4,286047013.3,N
1587408755.2,286047007.5,N
1587408775.1,286047006.9,N
1587408776.0,286047006.9,N
1587408795.8,286047005.6,N
1587408815.6,286047010.6,N
1587408835.5,286047011.6,N
1587408855.3,286047013.2,N
1587408875.2,286047012.7,N
1587408895.9,286047013.5,N
1587408915.7,286047010.2,N
1587408935.6,286047006.2,N
1587408955.4,286047003.8,N
1587408975.2,286047004.1,N
1587408995.1,286047003.4,N
1587408996.0,286047003.4,N
1587409015.8,286047004.8,N
1587409035.7,286046995.8,N
1587409055.5,286046992.4,N
1587409075.3,286046989.4,N
1587409095.2,286046988.0,N
1587409115.0,286046987.0,N
1587409115.9,286046987.0,N
1587409135.8,286046987.3,N
1587409155.6,286046996.7,N
1587409175.4,286047002.6,N
1587409195.3,286047001.9,N
